SCP
0 0 0 0 0 0 0 0 0 0 0 0 0 0 0 0 0 0 0 0 0 0 0 0 0 0 0 0 0 0 0 0 0 0 0 0 0 0 0 0 0 0 0 0 0 0 0 0 0 0 0 0 0 0
0 0 0 0 0 0 0 0 0 0 0 0 0 0 0 0 0 0 0 0 0 0 0 0 0 0 0 0 0 0 0 0 0 0 0 0 0 0 0 0 0 0 0 0 0 0 0 0 0 0 0 0 0 0
0 0 0 0 0 0 0 0 0 0 0 0 0 0 0 0 0 0 0 0 0 0 0 0 0 0 0 0 0 0 0 0 0 0 0 0 0 0 0 0 0 0 0 0 0 0 0 0 0 0 0 0 0 0
0 0 0 0 0 0 0 0 0 0 0 0 0 0 0 0 0 0 0 0 0 0 0 0 0 0 0 0 0 0 0 0 0 0 0 0 0 0 0 0 0 0 0 0 0 0 0 0 0 0 0 0 0 0
0 0 0 0 0 0 0 0 0 0 0 0 0 0 0 0 0 0 0 0 0 0 0 0 0 0 0 0 0 0 0 0 0 0 0 0 0 0 0 0 0 0 0 0 0 0 0 0 0 0 0 0 0 0
0 0 0 0 0 0 0 0 0 0 0 0 0 0 0 0 0 0 0 0 0 0 0 0 0 0 0 0 0 0 0 0 0 0 0 0 0 0 0 0 0 0 0 0 0 0 0 0 0 -0 0 0 0 -0
0 0 0 0 0 0 0 0 0 0 0 0 0 0 0 0 0 0 0 0 0 -0 0 0 0 0 0 0 0 0 0 0 0 0 0 0 -0 0 0 0 0 0 0 0 0 0 0 0 0 0 0 0 -0 -0
0 0 0 0 0 0 0 0 0 0 0 0 0 0 0 0 0 0 0 0 0 0 0 0 0 0 0 0 0 0 0 0 0 0 0 0 0 0 0 -0 -0 0 0 0 0 0 0 -0 0 0 0 -0 -0 -0
0 0 0 0 0 0 0 0 0 0 0 0 0 0 0 0 0 0 0 0 0 0 0 0 0 0 0 0 0 0 0 0 0 0 0 0 0 0 -0 -0 0 0 0 0 -0 -0 -0 0 0 -0 -0 -0 -0 -0
0 0 0 0 0 0 0 0 0 0 0 0 0 0 0 0 -0 -0 0 0 0 0 0 0 0 0 0 0 0 0 0 0 0 0 0 0 0 -0 -0 -0 0 0 0 0 0 0 0 0 0 -0 -0 -0 -0 -0
0 0 0 0 0 0 0 0 0 0 0 0 0 0 0 0 0 0 0 0 0 0 0 0 -0 0 0 0 0 0 0 0 0 0 0 0 -0 0 0 0 0 0 0 0 -0 -0 -0 -0 -0 -0 -0 -0 0 0
0 0 0 0 0 0 0 0 0 0 0 0 0 0 0 0 0 0 0 0 0 0 0 0 0 0 0 0 0 0 0 0 -0 0 -0 0 -0 0 0 0 0 0 0 0 -0 -0 -0 0 -0 -0 -0 0 0 0
0 0 0 0 0 0 0 0 0 0 0 0 0 0 0 0 0 0 0 0 0 0 0 0 0 0 0 0 0 0 0 -0 0 -0 -0 -0 0 0 0 0 0 0 0 -0 -0 0 0 0 0 0 0 0 0 -0
0 0 0 0 0 0 0 0 0 0 0 0 0 0 0 0 0 0 0 0 0 0 0 0 0 0 0 0 -0 -0 0 -0 -0 -0 -0 0 -0 0 0 0 -0 -0 0 0 -0 -0 -0 0 0 0 -0 -0 0 -0
0 0 0 0 0 0 0 0 0 0 -0 0 0 0 -0 -0 0 -0 0 0 0 0 0 0 0 0 0 0 0 -0 0 -0 0 -0 -0 0 0 0 0 0 -0 -0 -0 0 -0 0 -0 -0 0 -0 0 0 0 0
-0 0 0 0 0 0 0 0 0 0 0 0 0 0 -0 -0 -0 -0 0 0 0 0 0 0 0 -0 -0 0 -0 -0 -0 0 -0 -0 -0 0 -0 -0 0 0 -0 -0 -0 -0 0 0 0 0 -0 -0 0 0 0 0
0 0 0 0 0 0 0 0 0 0 0 0 -0 0 0 0 0 0 0 0 0 0 0 0 -0 -0 -0 0 -0 -0 -0 -0 -0 0 -0 -0 -0 -0 0 0 -0 -0 -0 -0 -0 -0 0 -0 -0 0 0 0 0 0
0 0 0 0 0 0 0 0 0 0 0 0 -0 -0 0 0 0 0 0 0 -0 0 0 -0 -0 -0 0 0 0 0 0 0 0 -0 -0 -0 -0 -0 0 0 0 0 -0 -0 0 -0 -0 -0 -0 -0 -0 -0 -0 -0
0 0 0 0 0 0 0 0 0 0 -0 -0 0 0 0 0 0 0 0 0 0 0 0 -0 -0 -0 0 0 -0 -0 0 0 0 0 0 -0 -0 -0 0 0 0 0 0 -0 -0 -0 0 0 -0 -0 -0 -0 -0 -0
0 0 0 0 0 0 0 0 0 0 0 0 -0 0 0 0 0 0 0 0 0 0 0 -0 -0 -0 0 0 0 0 -0 -0 -0 -0 -0 -0 -0 -0 0 0 0 0 0 0 -0 -0 0 0 -0 0 0 -0 -0 -0
0 0 0 0 0 0 0 0 0 0 0 0 0 0 0 0 0 0 0 0 0 0 0 -0 0 0 0 0 0 0 0 0 0 0 -0 0 -0 -0 -0 -0 -0 -0 -0 -0 -0 -0 -0 -0 -0 0 0 0 -0 0
0 0 0 0 0 0 0 0 0 0 0 0 0 0 0 0 0 0 0 0 0 0 -0 -0 0 0 0 0 0 0 0 0 0 0 0 0 0 0 0 0 -0 -0 -0 -0 -0 -0 -0 -0 0 0 0 0 0 0
0 0 0 0 0 0 0 -0 -0 -0 0 0 0 -0 -0 -0 0 0 0 0 -0 -0 -0 0 0 0 0 0 0 0 0 0 0 0 0 0 0 0 0 -0 -0 -0 -0 -0 -0 -0 -0 -0 -0 -0 0 0 0 0
0 0 0 0 0 -0 -0 0 -0 0 -0 -0 -0 -0 -0 0 0 0 0 0 0 0 0 0 0 0 0 0 0 0 0 0 0 0 0 0 0 0 0 -0 -0 0 -0 -0 -0 -0 0 0 0 0 0 0 0 0
0 0 0 0 0 -0 0 -0 -0 0 -0 -0 -0 -0 -0 -0 -0 0 0 0 0 0 0 0 -0 0 0 0 0 0 0 0 0 0 0 0 0 0 0 -0 -0 -0 0 0 0 0 0 0 0 0 0 0 -0 0
0 0 0 -0 -0 0 -0 -0 0 0 -0 0 -0 0 0 0 0 0 0 0 0 0 0 0 0 0 0 0 0 0 0 0 0 0 0 0 0 0 0 0 -0 0 0 0 0 0 0 0 0 0 0 0 0 0
0 0 0 0 0 -0 -0 -0 -0 -0 0 0 0 0 0 0 0 0 0 0 0 0 0 0 0 0 0 0 0 0 0 0 0 0 -0 -0 -0 -0 -0 0 0 0 0 0 0 0 0 0 0 0 0 0 0 0
0 0 -0 -0 -0 -0 -0 -0 -0 -0 0 0 0 0 0 0 -0 0 0 -0 0 0 0 0 0 0 -0 -0 -0 0 -0 -0 -0 -0 0 0 0 0 0 0 0 0 0 0 0 0 0 0 0 0 0 0 0 0
0 0 0 0 -0 -0 -0 -0 0 0 0 0 0 0 0 0 0 0 0 0 0 0 0 0 0 0 0 -0 -0 -0 0 0 0 0 0 0 0 0 0 0 0 0 0 0 0 0 0 0 0 0 0 0 0 0
0 0 0 0 -0 0 0 0 0 0 0 0 0 0 0 0 0 0 0 0 0 0 0 0 0 0 -0 0 0 0 0 0 0 0 0 0 0 0 0 0 0 0 0 0 0 0 0 0 0 0 0 0 0 0
0 0 0 0 0 0 0 0 0 0 0 0 0 0 0 0 0 0 0 -0 0 0 0 0 0 0 0 0 0 0 0 0 0 0 0 0 0 0 0 0 0 0 0 0 0 0 0 0 0 0 0 0 0 0
0 -0 0 0 0 0 0 0 0 0 0 0 0 0 0 0 0 0 0 -0 0 0 0 0 0 0 0 0 0 0 0 0 0 0 0 0 0 0 0 0 0 0 0 0 0 0 0 0 0 0 0 0 0 0
0 0 0 0 0 0 0 0 0 0 0 0 0 0 0 0 0 0 0 0 0 0 0 0 0 0 0 0 0 0 0 0 0 0 0 0 0 0 0 0 0 0 0 0 0 0 0 0 0 0 0 0 0 0
Wind_Speed_500mb
32 28 28 28 23 24 23 25 25 20 19 20 18 16 13 11 7 7 6 6 5 14 17 10 1 10 9 5 5 12 13 5 6 6 6 7 9 12 14 14 5 15 11 11 13 13 14 26 25 10 7 19 28 35
36 28 28 23 20 20 24 30 32 30 23 24 21 15 14 12 8 7 8 7 7 12 21 24 24 22 21 13 8 7 15 8 5 5 4 8 13 12 22 13 8 8 8 3 9 7 8 18 21 16 14 25 31 43
35 31 29 29 31 33 35 33 30 27 26 23 18 18 19 13 9 8 11 10 11 12 28 17 12 5 13 16 20 11 2 4 4 8 8 6 11 15 17 18 17 9 6 7 8 3 20 21 7 10 23 32 41 42
33 32 31 32 31 34 36 39 37 33 31 29 24 19 14 14 12 13 11 8 9 8 9 0 4 7 11 11 13 20 9 6 6 7 6 6 9 18 13 16 14 27 20 21 28 15 39 2 13 29 34 39 44 48
33 31 33 31 29 30 28 27 25 22 22 24 25 24 18 17 16 15 16 17 14 8 6 21 25 19 20 19 19 17 15 14 9 4 4 6 20 17 23 22 23 28 11 8 9 15 14 27 31 35 37 41 45 50
34 31 31 29 26 23 22 23 21 19 18 18 18 19 23 20 14 11 7 9 21 15 7 7 1 15 12 10 14 18 15 17 9 9 7 16 37 16 8 12 22 9 24 31 26 17 21 25 30 36 37 42 45 47
33 27 25 27 25 21 20 18 17 16 17 18 18 20 20 20 16 12 3 6 8 13 7 10 4 12 23 19 15 14 14 6 8 7 13 30 29 9 7 22 37 34 18 18 14 15 22 23 36 37 37 41 43 47
28 23 24 25 22 19 17 16 16 15 15 14 15 18 20 18 19 13 15 8 7 6 6 5 7 12 24 12 12 12 13 10 11 9 11 17 8 10 10 28 17 16 14 14 13 19 25 35 35 34 36 42 46 49
30 24 22 19 15 13 13 14 15 14 12 11 19 15 14 13 8 10 11 15 20 7 5 7 7 1 15 10 12 14 8 5 12 9 14 8 8 13 18 17 17 13 7 18 22 26 29 31 34 36 38 41 45 52
32 25 19 17 14 11 14 14 13 13 11 24 24 9 7 9 11 12 11 6 6 8 9 9 23 9 10 10 4 8 5 5 6 14 7 7 12 39 34 17 11 8 10 17 26 28 31 33 36 38 37 40 43 50
33 28 22 20 20 18 12 9 14 17 27 25 12 7 12 22 13 9 7 8 9 7 12 15 24 11 4 5 3 5 3 6 6 6 6 6 7 4 7 3 4 9 14 19 20 24 27 30 34 37 40 39 45 48
36 35 32 25 27 27 18 18 23 32 18 20 11 18 20 10 6 6 7 8 9 7 20 20 13 7 5 3 7 10 6 6 9 16 6 6 6 19 10 2 5 10 14 18 21 23 25 28 31 33 37 42 42 51
32 38 29 25 27 26 25 24 25 32 27 20 8 9 9 8 8 9 12 9 10 16 16 19 10 11 6 9 5 7 10 11 5 5 5 7 19 10 5 11 10 12 17 17 19 22 25 29 31 32 36 36 44 48
29 21 17 26 29 27 22 23 26 29 18 8 10 9 9 10 11 15 11 5 6 13 17 10 12 9 9 10 8 8 9 7 8 10 3 4 5 11 11 11 13 14 16 19 23 25 28 30 32 34 35 41 48 47
13 14 19 20 22 23 24 21 23 36 9 5 5 8 14 23 10 11 11 8 16 20 15 11 7 3 3 6 5 8 7 8 6 4 5 7 15 13 12 13 14 15 17 20 23 26 28 32 32 33 40 44 46 47
8 8 13 13 15 24 19 16 30 32 7 6 9 10 21 12 15 17 14 10 14 22 15 9 5 3 5 6 7 9 8 2 2 7 10 18 14 11 12 13 13 15 18 21 23 25 28 31 33 36 40 46 45 50
5 4 1 16 14 21 22 38 21 10 8 7 12 26 27 18 4 10 12 3 16 17 4 5 5 8 5 6 7 6 5 1 13 14 20 17 13 11 11 12 12 15 19 21 25 25 29 30 32 38 44 49 45 54
17 8 13 14 21 21 37 25 11 9 10 18 15 22 24 25 20 24 14 11 17 13 12 6 5 4 6 7 3 8 20 14 21 26 23 14 10 10 11 11 12 15 17 20 25 23 26 31 38 42 44 47 48 54
16 13 18 21 27 19 8 11 11 6 19 18 26 29 28 20 19 22 13 10 16 16 16 5 5 5 7 5 4 20 3 2 20 21 18 13 8 8 9 9 11 13 15 15 22 24 27 29 36 39 42 45 48 54
19 21 16 18 23 16 11 9 12 9 9 15 24 28 27 26 21 19 13 24 21 15 8 6 8 12 8 21 15 30 16 17 20 15 16 17 10 6 9 9 9 12 14 16 17 26 28 29 37 39 42 45 45 54
15 21 23 21 27 20 7 8 11 9 12 11 12 14 18 21 16 18 13 24 13 12 9 21 27 28 12 20 25 4 5 8 15 12 13 16 10 9 8 8 7 14 16 18 19 24 28 32 35 35 39 42 42 46
12 20 25 29 10 11 10 13 7 2 7 9 10 6 8 9 16 15 11 12 9 12 23 27 24 15 14 21 11 4 5 11 11 9 10 8 10 13 11 10 11 15 16 18 19 21 24 26 33 33 35 38 40 43
26 22 14 13 8 13 6 11 9 7 5 3 4 5 6 5 2 7 4 8 14 24 27 25 19 10 11 15 12 14 7 4 12 14 10 15 13 12 12 12 11 13 14 15 16 18 20 24 27 31 33 34 39 42
18 13 8 11 14 9 8 8 6 4 5 5 5 7 8 7 4 4 5 6 14 8 21 20 19 12 14 18 17 13 8 7 17 14 11 11 15 12 12 14 14 13 13 12 14 15 17 21 24 27 31 35 35 39
7 9 7 7 11 10 9 10 8 6 6 10 8 6 7 9 5 5 3 5 2 5 16 23 24 19 19 18 18 14 9 12 15 15 10 11 11 12 11 12 14 16 14 13 13 15 15 17 20 23 26 32 35 37
8 11 12 17 11 11 10 7 14 12 7 9 12 10 7 5 4 3 4 18 16 13 22 17 10 13 17 19 18 15 13 13 15 16 11 10 10 11 9 10 17 17 16 14 14 14 15 15 17 19 21 24 29 29
6 9 12 12 9 7 7 4 7 6 7 6 5 7 5 4 4 3 6 14 14 12 14 5 6 18 21 22 21 15 15 14 17 21 15 14 15 16 16 16 12 10 13 14 14 14 13 14 15 16 18 19 22 24
9 3 11 14 15 11 2 4 5 5 3 9 8 3 3 7 4 1 4 7 6 3 7 6 11 16 26 26 22 20 18 20 21 20 17 17 17 17 18 16 17 14 16 21 18 15 14 13 13 13 14 18 19 20
8 7 9 7 5 6 9 5 3 9 12 9 4 5 6 5 8 12 6 8 2 11 16 19 21 23 21 21 19 17 16 14 14 12 8 11 13 12 11 11 11 11 9 15 22 25 28 17 21 18 14 16 16 15
8 9 5 8 4 2 8 6 4 7 3 8 13 13 11 11 11 15 19 13 9 12 13 15 18 21 22 23 21 18 13 10 8 9 21 22 16 8 8 7 7 9 11 11 11 14 19 19 16 16 15 15 19 18
10 10 1 5 5 4 10 15 16 14 13 16 17 20 17 14 22 27 26 26 13 16 20 21 21 19 19 19 19 19 20 17 17 17 14 11 10 9 10 9 8 9 10 11 11 14 17 14 13 13 13 15 17 18
13 11 8 5 6 16 8 4 7 8 10 13 13 22 15 10 8 8 26 30 19 19 21 21 22 22 20 20 23 29 28 23 22 24 23 17 14 12 7 7 8 10 10 9 10 13 17 16 14 15 14 15 16 17
6 9 12 9 8 10 10 9 6 7 7 6 5 8 10 8 8 5 16 28 23 19 21 21 20 20 18 17 13 18 12 11 12 11 7 2 2 5 3 9 12 11 9 9 11 12 16 14 12 12 14 14 16 17
Wind_Direction_500mb
300 299 299 307 298 282 283 276 268 282 291 290 280 279 286 297 253 228 291 299 335 296 304 332 278 246 246 262 227 25 270 218 262 254 271 292 284 296 295 321 260 196 195 198 220 235 246 9 338 351 339 321 319 326
311 298 293 279 276 269 278 280 287 287 282 277 265 263 268 278 260 247 248 276 312 273 261 299 265 254 241 234 219 247 331 304 329 300 315 321 307 303 302 288 270 265 226 249 222 284 292 309 297 325 324 314 324 310
312 307 292 276 265 271 278 281 281 276 275 268 262 257 251 257 257 253 254 294 331 310 299 229 200 242 202 213 231 248 173 327 229 357 305 282 271 300 286 290 311 289 334 247 296 280 294 291 352 304 315 329 310 322
306 304 297 288 277 274 277 275 273 273 267 258 253 244 242 238 247 252 277 275 294 267 295 276 148 186 190 203 233 219 230 258 296 359 327 273 267 288 287 291 274 273 281 278 281 340 343 202 316 337 330 319 324 321
306 305 301 297 288 274 276 279 280 271 265 247 242 229 238 234 240 261 265 268 258 242 317 296 295 272 243 217 209 198 201 219 223 181 234 235 268 290 276 274 271 284 339 312 308 309 292 305 325 321 313 323 323 323
309 305 302 299 293 279 275 277 273 257 251 241 232 227 225 228 234 248 296 268 239 233 274 299 252 211 164 179 184 215 203 202 189 186 225 254 254 266 282 275 283 270 265 297 318 324 300 309 308 306 323 326 323 321
308 304 300 297 291 284 269 270 266 260 252 241 230 219 202 213 229 232 266 129 59 160 261 277 233 167 159 149 159 171 186 198 212 216 235 253 267 223 263 268 283 295 263 266 318 318 308 311 310 323 329 323 322 320
303 299 301 297 286 278 265 260 257 259 259 225 210 204 209 215 221 228 234 256 182 230 260 282 280 154 178 178 170 180 192 190 215 232 252 259 247 213 252 261 298 309 332 322 309 310 299 302 316 324 327 326 326 326
294 290 299 290 277 270 266 259 251 243 238 199 178 195 213 205 198 232 238 224 196 210 249 220 250 59 179 205 162 184 181 225 207 228 237 216 234 221 251 307 313 310 297 303 322 312 317 325 322 327 330 331 329 326
287 278 280 275 263 271 274 263 240 217 192 160 174 171 198 198 195 176 140 180 223 220 233 255 238 242 199 192 179 160 177 237 245 215 216 236 261 258 260 287 297 319 348 325 325 329 326 325 330 330 334 330 326 331
282 269 257 268 255 254 252 231 185 169 166 173 191 185 151 156 144 178 170 206 176 229 210 235 226 225 259 225 212 265 154 266 261 166 234 226 258 94 160 157 17 328 313 330 322 323 326 329 329 335 332 335 333 329
279 274 258 254 248 240 234 213 193 181 189 186 189 135 153 188 220 234 203 182 213 232 192 202 188 204 135 256 214 185 245 255 253 163 217 236 69 131 128 211 273 339 334 336 331 330 334 340 341 338 337 335 331 329
277 277 249 245 253 242 231 222 202 194 193 160 174 155 156 170 213 223 198 202 206 194 172 154 153 150 150 205 232 217 235 229 309 242 244 41 178 118 48 17 358 0 350 338 345 347 347 347 345 348 344 336 335 344
270 239 251 248 244 238 215 207 197 183 166 184 181 170 225 185 236 216 268 65 48 124 112 120 153 208 170 190 233 236 235 229 231 210 68 144 170 84 55 27 25 7 2 357 358 355 351 353 354 349 343 344 351 351
262 240 262 238 226 196 202 184 191 191 208 213 208 231 220 239 256 277 151 95 94 109 100 97 89 357 311 275 240 290 240 250 14 41 133 108 72 64 53 41 24 11 6 4 1 359 0 357 355 351 355 359 355 356
288 272 268 209 176 175 191 170 188 191 216 224 232 267 254 262 259 230 201 151 138 122 105 113 121 195 232 254 234 246 287 333 23 83 145 100 85 71 55 37 26 15 12 11 8 6 8 5 359 356 3 3 3 3
256 286 55 167 177 171 173 186 180 204 225 226 241 241 262 278 14 333 243 181 159 153 130 143 196 224 222 241 226 226 228 88 108 104 85 81 89 72 53 42 26 18 17 17 13 10 12 9 7 11 13 8 13 9
229 246 196 190 196 180 185 195 197 206 239 236 248 252 255 257 237 224 249 222 206 143 155 186 232 231 235 265 4 321 330 108 100 101 97 98 90 66 49 42 26 19 18 19 17 10 20 17 17 16 16 13 13 12
228 241 207 203 193 180 190 203 213 235 238 251 242 259 269 269 265 263 226 179 147 140 132 155 244 242 252 283 270 278 247 37 113 109 116 115 102 68 46 41 32 22 18 24 25 22 29 26 24 20 16 17 18 14
241 220 214 201 202 194 180 209 200 245 255 232 248 255 250 263 261 266 215 165 149 138 144 204 229 241 258 287 279 287 142 161 151 148 145 130 125 123 50 43 45 34 34 35 51 38 34 29 25 24 22 20 18 17
243 230 218 191 201 204 213 202 210 239 287 282 302 285 262 249 233 237 221 173 174 182 205 226 257 268 263 256 287 344 120 128 59 109 165 132 132 96 71 49 53 50 42 41 35 42 36 30 22 21 22 22 20 19
212 182 168 186 177 200 235 209 253 270 236 261 284 226 276 279 268 259 257 189 198 208 229 253 263 268 245 266 281 214 126 117 94 106 93 104 141 101 63 50 47 54 45 35 35 36 36 28 28 24 23 22 22 20
189 202 171 176 209 198 237 191 201 212 248 254 245 231 215 234 255 166 215 231 247 248 235 233 239 225 228 236 195 136 145 120 130 109 130 91 92 88 84 70 64 53 49 38 33 31 29 28 24 26 23 24 21 21
207 179 193 195 203 191 182 188 204 228 240 226 219 233 194 197 172 232 264 246 248 273 204 191 169 199 180 170 153 141 161 130 118 123 120 125 102 82 81 78 70 60 48 41 34 28 23 20 21 22 23 25 25 23
171 198 199 208 213 191 196 174 191 204 241 223 228 209 142 162 191 214 255 308 102 176 171 161 177 181 178 149 135 117 127 142 137 128 99 85 99 108 97 88 73 55 43 38 30 27 24 19 17 18 18 22 25 23
225 193 199 199 179 218 207 197 184 211 231 207 223 124 137 167 218 124 24 33 73 48 161 165 176 164 159 142 130 138 145 138 131 119 96 85 64 66 73 81 86 48 36 33 25 21 18 17 18 19 19 17 20 23
231 220 215 220 222 232 252 220 166 246 230 236 145 143 169 205 108 62 65 37 44 57 153 141 131 139 140 136 132 128 120 127 131 114 101 83 69 66 77 80 93 49 25 30 27 17 16 11 12 12 14 14 15 18
260 246 209 206 211 234 285 291 215 247 271 112 128 85 102 17 80 66 109 44 28 111 109 81 146 143 131 131 138 137 117 113 118 112 109 90 80 71 64 51 36 33 18 19 30 19 22 16 12 7 7 8 6 8
242 230 231 227 188 234 216 202 338 21 9 22 45 77 91 80 95 99 51 357 117 133 128 112 101 105 119 130 131 133 134 137 149 161 139 132 119 83 62 50 38 25 18 344 353 6 14 30 30 31 20 9 1 5
210 198 225 197 153 355 34 19 26 324 26 115 115 109 99 113 105 78 63 79 124 152 146 141 138 140 138 135 130 123 118 103 73 150 136 130 120 103 64 43 24 13 8 12 8 354 356 5 2 2 7 5 3 15
145 170 210 75 81 87 108 94 85 96 83 65 103 123 120 121 95 80 78 74 89 121 131 130 125 130 134 140 142 132 110 90 86 88 95 96 76 67 61 51 31 23 19 15 15 12 12 14 12 10 8 8 5 8
168 201 154 127 120 148 109 80 79 94 97 96 99 111 110 98 72 109 85 76 93 96 97 107 104 96 102 99 113 135 151 154 143 128 124 124 110 83 58 35 16 21 23 21 26 15 19 28 22 20 14 11 7 3
185 110 113 108 134 179 175 154 125 124 113 101 99 96 74 75 98 142 128 101 86 105 110 112 116 120 127 144 144 167 178 152 151 155 160 197 249 202 81 63 42 41 42 46 40 16 353 358 359 359 359 357 356 348
Wind_Speed_850mb
32 28 28 28 23 24 23 25 25 20 19 20 18 16 13 11 7 7 6 6 5 14 17 10 1 10 9 5 5 12 13 5 6 6 6 7 9 12 14 14 5 15 11 11 13 13 14 26 25 10 7 19 28 35
36 28 28 23 20 20 24 30 32 30 23 24 21 15 14 12 8 7 8 7 7 12 21 24 24 22 21 13 8 7 15 8 5 5 4 8 13 12 22 13 8 8 8 3 9 7 8 18 21 16 14 25 31 43
35 31 29 29 31 33 35 33 30 27 26 23 18 18 19 13 9 8 11 10 11 12 28 17 12 5 13 16 20 11 2 4 4 8 8 6 11 15 17 18 17 9 6 7 8 3 20 21 7 10 23 32 41 42
33 32 31 32 31 34 36 39 37 33 31 29 24 19 14 14 12 13 11 8 9 8 9 0 4 7 11 11 13 20 9 6 6 7 6 6 9 18 13 16 14 27 20 21 28 15 39 2 13 29 34 39 44 48
33 31 33 31 29 30 28 27 25 22 22 24 25 24 18 17 16 15 16 17 14 8 6 21 25 19 20 19 19 17 15 14 9 4 4 6 20 17 23 22 23 28 11 8 9 15 14 27 31 35 37 41 45 50
34 31 31 29 26 23 22 23 21 19 18 18 18 19 23 20 14 11 7 9 21 15 7 7 1 15 12 10 14 18 15 17 9 9 7 16 37 16 8 12 22 9 24 31 26 17 21 25 30 36 37 42 45 47
33 27 25 27 25 21 20 18 17 16 17 18 18 20 20 20 16 12 3 6 8 13 7 10 4 12 23 19 15 14 14 6 8 7 13 30 29 9 7 22 37 34 18 18 14 15 22 23 36 37 37 41 43 47
28 23 24 25 22 19 17 16 16 15 15 14 15 18 20 18 19 13 15 8 7 6 6 5 7 12 24 12 12 12 13 10 11 9 11 17 8 10 10 28 17 16 14 14 13 19 25 35 35 34 36 42 46 49
30 24 22 19 15 13 13 14 15 14 12 11 19 15 14 13 8 10 11 15 20 7 5 7 7 1 15 10 12 14 8 5 12 9 14 8 8 13 18 17 17 13 7 18 22 26 29 31 34 36 38 41 45 52
32 25 19 17 14 11 14 14 13 13 11 24 24 9 7 9 11 12 11 6 6 8 9 9 23 9 10 10 4 8 5 5 6 14 7 7 12 39 34 17 11 8 10 17 26 28 31 33 36 38 37 40 43 50
33 28 22 20 20 18 12 9 14 17 27 25 12 7 12 22 13 9 7 8 9 7 12 15 24 11 4 5 3 5 3 6 6 6 6 6 7 4 7 3 4 9 14 19 20 24 27 30 34 37 40 39 45 48
36 35 32 25 27 27 18 18 23 32 18 20 11 18 20 10 6 6 7 8 9 7 20 20 13 7 5 3 7 10 6 6 9 16 6 6 6 19 10 2 5 10 14 18 21 23 25 28 31 33 37 42 42 51
32 38 29 25 27 26 25 24 25 32 27 20 8 9 9 8 8 9 12 9 10 16 16 19 10 11 6 9 5 7 10 11 5 5 5 7 19 10 5 11 10 12 17 17 19 22 25 29 31 32 36 36 44 48
29 21 17 26 29 27 22 23 26 29 18 8 10 9 9 10 11 15 11 5 6 13 17 10 12 9 9 10 8 8 9 7 8 10 3 4 5 11 11 11 13 14 16 19 23 25 28 30 32 34 35 41 48 47
13 14 19 20 22 23 24 21 23 36 9 5 5 8 14 23 10 11 11 8 16 20 15 11 7 3 3 6 5 8 7 8 6 4 5 7 15 13 12 13 14 15 17 20 23 26 28 32 32 33 40 44 46 47
8 8 13 13 15 24 19 16 30 32 7 6 9 10 21 12 15 17 14 10 14 22 15 9 5 3 5 6 7 9 8 2 2 7 10 18 14 11 12 13 13 15 18 21 23 25 28 31 33 36 40 46 45 50
5 4 1 16 14 21 22 38 21 10 8 7 12 26 27 18 4 10 12 3 16 17 4 5 5 8 5 6 7 6 5 1 13 14 20 17 13 11 11 12 12 15 19 21 25 25 29 30 32 38 44 49 45 54
17 8 13 14 21 21 37 25 11 9 10 18 15 22 24 25 20 24 14 11 17 13 12 6 5 4 6 7 3 8 20 14 21 26 23 14 10 10 11 11 12 15 17 20 25 23 26 31 38 42 44 47 48 54
16 13 18 21 27 19 8 11 11 6 19 18 26 29 28 20 19 22 13 10 16 16 16 5 5 5 7 5 4 20 3 2 20 21 18 13 8 8 9 9 11 13 15 15 22 24 27 29 36 39 42 45 48 54
19 21 16 18 23 16 11 9 12 9 9 15 24 28 27 26 21 19 13 24 21 15 8 6 8 12 8 21 15 30 16 17 20 15 16 17 10 6 9 9 9 12 14 16 17 26 28 29 37 39 42 45 45 54
15 21 23 21 27 20 7 8 11 9 12 11 12 14 18 21 16 18 13 24 13 12 9 21 27 28 12 20 25 4 5 8 15 12 13 16 10 9 8 8 7 14 16 18 19 24 28 32 35 35 39 42 42 46
12 20 25 29 10 11 10 13 7 2 7 9 10 6 8 9 16 15 11 12 9 12 23 27 24 15 14 21 11 4 5 11 11 9 10 8 10 13 11 10 11 15 16 18 19 21 24 26 33 33 35 38 40 43
26 22 14 13 8 13 6 11 9 7 5 3 4 5 6 5 2 7 4 8 14 24 27 25 19 10 11 15 12 14 7 4 12 14 10 15 13 12 12 12 11 13 14 15 16 18 20 24 27 31 33 34 39 42
18 13 8 11 14 9 8 8 6 4 5 5 5 7 8 7 4 4 5 6 14 8 21 20 19 12 14 18 17 13 8 7 17 14 11 11 15 12 12 14 14 13 13 12 14 15 17 21 24 27 31 35 35 39
7 9 7 7 11 10 9 10 8 6 6 10 8 6 7 9 5 5 3 5 2 5 16 23 24 19 19 18 18 14 9 12 15 15 10 11 11 12 11 12 14 16 14 13 13 15 15 17 20 23 26 32 35 37
8 11 12 17 11 11 10 7 14 12 7 9 12 10 7 5 4 3 4 18 16 13 22 17 10 13 17 19 18 15 13 13 15 16 11 10 10 11 9 10 17 17 16 14 14 14 15 15 17 19 21 24 29 29
6 9 12 12 9 7 7 4 7 6 7 6 5 7 5 4 4 3 6 14 14 12 14 5 6 18 21 22 21 15 15 14 17 21 15 14 15 16 16 16 12 10 13 14 14 14 13 14 15 16 18 19 22 24
9 3 11 14 15 11 2 4 5 5 3 9 8 3 3 7 4 1 4 7 6 3 7 6 11 16 26 26 22 20 18 20 21 20 17 17 17 17 18 16 17 14 16 21 18 15 14 13 13 13 14 18 19 20
8 7 9 7 5 6 9 5 3 9 12 9 4 5 6 5 8 12 6 8 2 11 16 19 21 23 21 21 19 17 16 14 14 12 8 11 13 12 11 11 11 11 9 15 22 25 28 17 21 18 14 16 16 15
8 9 5 8 4 2 8 6 4 7 3 8 13 13 11 11 11 15 19 13 9 12 13 15 18 21 22 23 21 18 13 10 8 9 21 22 16 8 8 7 7 9 11 11 11 14 19 19 16 16 15 15 19 18
10 10 1 5 5 4 10 15 16 14 13 16 17 20 17 14 22 27 26 26 13 16 20 21 21 19 19 19 19 19 20 17 17 17 14 11 10 9 10 9 8 9 10 11 11 14 17 14 13 13 13 15 17 18
13 11 8 5 6 16 8 4 7 8 10 13 13 22 15 10 8 8 26 30 19 19 21 21 22 22 20 20 23 29 28 23 22 24 23 17 14 12 7 7 8 10 10 9 10 13 17 16 14 15 14 15 16 17
6 9 12 9 8 10 10 9 6 7 7 6 5 8 10 8 8 5 16 28 23 19 21 21 20 20 18 17 13 18 12 11 12 11 7 2 2 5 3 9 12 11 9 9 11 12 16 14 12 12 14 14 16 17
Wind_Direction_850mb
300 299 299 307 298 282 283 276 268 282 291 290 280 279 286 297 253 228 291 299 335 296 304 332 278 246 246 262 227 25 270 218 262 254 271 292 284 296 295 321 260 196 195 198 220 235 246 9 338 351 339 321 319 326
311 298 293 279 276 269 278 280 287 287 282 277 265 263 268 278 260 247 248 276 312 273 261 299 265 254 241 234 219 247 331 304 329 300 315 321 307 303 302 288 270 265 226 249 222 284 292 309 297 325 324 314 324 310
312 307 292 276 265 271 278 281 281 276 275 268 262 257 251 257 257 253 254 294 331 310 299 229 200 242 202 213 231 248 173 327 229 357 305 282 271 300 286 290 311 289 334 247 296 280 294 291 352 304 315 329 310 322
306 304 297 288 277 274 277 275 273 273 267 258 253 244 242 238 247 252 277 275 294 267 295 276 148 186 190 203 233 219 230 258 296 359 327 273 267 288 287 291 274 273 281 278 281 340 343 202 316 337 330 319 324 321
306 305 301 297 288 274 276 279 280 271 265 247 242 229 238 234 240 261 265 268 258 242 317 296 295 272 243 217 209 198 201 219 223 181 234 235 268 290 276 274 271 284 339 312 308 309 292 305 325 321 313 323 323 323
309 305 302 299 293 279 275 277 273 257 251 241 232 227 225 228 234 248 296 268 239 233 274 299 252 211 164 179 184 215 203 202 189 186 225 254 254 266 282 275 283 270 265 297 318 324 300 309 308 306 323 326 323 321
308 304 300 297 291 284 269 270 266 260 252 241 230 219 202 213 229 232 266 129 59 160 261 277 233 167 159 149 159 171 186 198 212 216 235 253 267 223 263 268 283 295 263 266 318 318 308 311 310 323 329 323 322 320
303 299 301 297 286 278 265 260 257 259 259 225 210 204 209 215 221 228 234 256 182 230 260 282 280 154 178 178 170 180 192 190 215 232 252 259 247 213 252 261 298 309 332 322 309 310 299 302 316 324 327 326 326 326
294 290 299 290 277 270 266 259 251 243 238 199 178 195 213 205 198 232 238 224 196 210 249 220 250 59 179 205 162 184 181 225 207 228 237 216 234 221 251 307 313 310 297 303 322 312 317 325 322 327 330 331 329 326
287 278 280 275 263 271 274 263 240 217 192 160 174 171 198 198 195 176 140 180 223 220 233 255 238 242 199 192 179 160 177 237 245 215 216 236 261 258 260 287 297 319 348 325 325 329 326 325 330 330 334 330 326 331
282 269 257 268 255 254 252 231 185 169 166 173 191 185 151 156 144 178 170 206 176 229 210 235 226 225 259 225 212 265 154 266 261 166 234 226 258 94 160 157 17 328 313 330 322 323 326 329 329 335 332 335 333 329
279 274 258 254 248 240 234 213 193 181 189 186 189 135 153 188 220 234 203 182 213 232 192 202 188 204 135 256 214 185 245 255 253 163 217 236 69 131 128 211 273 339 334 336 331 330 334 340 341 338 337 335 331 329
277 277 249 245 253 242 231 222 202 194 193 160 174 155 156 170 213 223 198 202 206 194 172 154 153 150 150 205 232 217 235 229 309 242 244 41 178 118 48 17 358 0 350 338 345 347 347 347 345 348 344 336 335 344
270 239 251 248 244 238 215 207 197 183 166 184 181 170 225 185 236 216 268 65 48 124 112 120 153 208 170 190 233 236 235 229 231 210 68 144 170 84 55 27 25 7 2 357 358 355 351 353 354 349 343 344 351 351
262 240 262 238 226 196 202 184 191 191 208 213 208 231 220 239 256 277 151 95 94 109 100 97 89 357 311 275 240 290 240 250 14 41 133 108 72 64 53 41 24 11 6 4 1 359 0 357 355 351 355 359 355 356
288 272 268 209 176 175 191 170 188 191 216 224 232 267 254 262 259 230 201 151 138 122 105 113 121 195 232 254 234 246 287 333 23 83 145 100 85 71 55 37 26 15 12 11 8 6 8 5 359 356 3 3 3 3
256 286 55 167 177 171 173 186 180 204 225 226 241 241 262 278 14 333 243 181 159 153 130 143 196 224 222 241 226 226 228 88 108 104 85 81 89 72 53 42 26 18 17 17 13 10 12 9 7 11 13 8 13 9
229 246 196 190 196 180 185 195 197 206 239 236 248 252 255 257 237 224 249 222 206 143 155 186 232 231 235 265 4 321 330 108 100 101 97 98 90 66 49 42 26 19 18 19 17 10 20 17 17 16 16 13 13 12
228 241 207 203 193 180 190 203 213 235 238 251 242 259 269 269 265 263 226 179 147 140 132 155 244 242 252 283 270 278 247 37 113 109 116 115 102 68 46 41 32 22 18 24 25 22 29 26 24 20 16 17 18 14
241 220 214 201 202 194 180 209 200 245 255 232 248 255 250 263 261 266 215 165 149 138 144 204 229 241 258 287 279 287 142 161 151 148 145 130 125 123 50 43 45 34 34 35 51 38 34 29 25 24 22 20 18 17
243 230 218 191 201 204 213 202 210 239 287 282 302 285 262 249 233 237 221 173 174 182 205 226 257 268 263 256 287 344 120 128 59 109 165 132 132 96 71 49 53 50 42 41 35 42 36 30 22 21 22 22 20 19
212 182 168 186 177 200 235 209 253 270 236 261 284 226 276 279 268 259 257 189 198 208 229 253 263 268 245 266 281 214 126 117 94 106 93 104 141 101 63 50 47 54 45 35 35 36 36 28 28 24 23 22 22 20
189 202 171 176 209 198 237 191 201 212 248 254 245 231 215 234 255 166 215 231 247 248 235 233 239 225 228 236 195 136 145 120 130 109 130 91 92 88 84 70 64 53 49 38 33 31 29 28 24 26 23 24 21 21
207 179 193 195 203 191 182 188 204 228 240 226 219 233 194 197 172 232 264 246 248 273 204 191 169 199 180 170 153 141 161 130 118 123 120 125 102 82 81 78 70 60 48 41 34 28 23 20 21 22 23 25 25 23
171 198 199 208 213 191 196 174 191 204 241 223 228 209 142 162 191 214 255 308 102 176 171 161 177 181 178 149 135 117 127 142 137 128 99 85 99 108 97 88 73 55 43 38 30 27 24 19 17 18 18 22 25 23
225 193 199 199 179 218 207 197 184 211 231 207 223 124 137 167 218 124 24 33 73 48 161 165 176 164 159 142 130 138 145 138 131 119 96 85 64 66 73 81 86 48 36 33 25 21 18 17 18 19 19 17 20 23
231 220 215 220 222 232 252 220 166 246 230 236 145 143 169 205 108 62 65 37 44 57 153 141 131 139 140 136 132 128 120 127 131 114 101 83 69 66 77 80 93 49 25 30 27 17 16 11 12 12 14 14 15 18
260 246 209 206 211 234 285 291 215 247 271 112 128 85 102 17 80 66 109 44 28 111 109 81 146 143 131 131 138 137 117 113 118 112 109 90 80 71 64 51 36 33 18 19 30 19 22 16 12 7 7 8 6 8
242 230 231 227 188 234 216 202 338 21 9 22 45 77 91 80 95 99 51 357 117 133 128 112 101 105 119 130 131 133 134 137 149 161 139 132 119 83 62 50 38 25 18 344 353 6 14 30 30 31 20 9 1 5
210 198 225 197 153 355 34 19 26 324 26 115 115 109 99 113 105 78 63 79 124 152 146 141 138 140 138 135 130 123 118 103 73 150 136 130 120 103 64 43 24 13 8 12 8 354 356 5 2 2 7 5 3 15
145 170 210 75 81 87 108 94 85 96 83 65 103 123 120 121 95 80 78 74 89 121 131 130 125 130 134 140 142 132 110 90 86 88 95 96 76 67 61 51 31 23 19 15 15 12 12 14 12 10 8 8 5 8
168 201 154 127 120 148 109 80 79 94 97 96 99 111 110 98 72 109 85 76 93 96 97 107 104 96 102 99 113 135 151 154 143 128 124 124 110 83 58 35 16 21 23 21 26 15 19 28 22 20 14 11 7 3
185 110 113 108 134 179 175 154 125 124 113 101 99 96 74 75 98 142 128 101 86 105 110 112 116 120 127 144 144 167 178 152 151 155 160 197 249 202 81 63 42 41 42 46 40 16 353 358 359 359 359 357 356 348